Zurück zum Katalog

LONGJIANG 1

AktivWissenschaftHEO
NORAD 43471·PAYLOAD·🇨🇳 China

Gestartet May 20, 2018 von Xichang Satellite Launch Center

Loading…

Nächste Überflüge (nächste 24 Stunden)

TLE

VeraltetSource: Space-Track

Epoche: May 20, 2018, 23:16 UTC

1 43471U 18045B   18140.97000001 -.00010094 +00000-0 +00000-0 0  9993
2 43471 027.5020 209.5210 9658153 171.2240 002.0960 00.09844104000018

Verfolge LONGJIANG 1 in Echtzeit mit AllMySat

Download on the App Store